When you browse on this site, cookies collect data to enhance your experience and personalize the content and advertising you see.
Visit our Privacy Policy to learn more. By continuing to use the site, you agree to this use of cookies and data.
EN

Hourly Weather Urusovo

Today, 28 September, Monday

Time Temperature Precipitation Wind Pressure Humidity
00:00 +9°C° 0 mm 2 mps 761 mmHg 61%
01:00 +9°C° 0 mm 2 mps 761 mmHg 60%
02:00 +9°C° 0 mm 2 mps 761 mmHg 60%
03:00 +9°C° 0 mm 2 mps 761 mmHg 59%
04:00 +9°C° 0 mm 2 mps 761 mmHg 59%
05:00 +9°C° 0 mm 2 mps 761 mmHg 59%
06:00 +8°C° 0 mm 2 mps 761 mmHg 59%
07:00 +10°C° 0 mm 2 mps 761 mmHg 57%
08:00 +12°C° 0 mm 2 mps 761 mmHg 54%
09:00 +13°C° 0 mm 2 mps 762 mmHg 52%
10:00 +14°C° 0 mm 3 mps 761 mmHg 48%
11:00 +16°C° 0 mm 3 mps 761 mmHg 44%
12:00 +17°C° 0 mm 3 mps 761 mmHg 40%
13:00 +18°C° 0 mm 3 mps 761 mmHg 40%
14:00 +18°C° 0 mm 3 mps 761 mmHg 41%
15:00 +18°C° 0 mm 3 mps 761 mmHg 41%
16:00 +17°C° 0 mm 3 mps 761 mmHg 46%
17:00 +15°C° 0 mm 2 mps 761 mmHg 51%
18:00 +14°C° 0 mm 2 mps 761 mmHg 56%
19:00 +13°C° 0 mm 2 mps 761 mmHg 57%
20:00 +13°C° 0 mm 2 mps 761 mmHg 57%
21:00 +12°C° 0 mm 2 mps 761 mmHg 58%
22:00 +12°C° 0 mm 2 mps 761 mmHg 59%
23:00 +10°C° 0 mm 2 mps 761 mmHg 60%

Tomorrow, 29 September, Tuesday

Time Temperature Precipitation Wind Pressure Humidity
00:00 +10°C° 0 mm 2 mps 761 mmHg 61%
01:00 +10°C° 0 mm 2 mps 761 mmHg 60%
02:00 +9°C° 0 mm 2 mps 761 mmHg 60%
03:00 +9°C° 0 mm 2 mps 761 mmHg 59%
04:00 +9°C° 0 mm 2 mps 761 mmHg 60%
05:00 +8°C° 0 mm 2 mps 761 mmHg 60%
06:00 +8°C° 0 mm 2 mps 760 mmHg 61%
07:00 +10°C° 0 mm 2 mps 761 mmHg 58%
08:00 +12°C° 0 mm 2 mps 761 mmHg 56%
09:00 +14°C° 0 mm 2 mps 761 mmHg 53%
10:00 +15°C° 0 mm 2 mps 761 mmHg 51%
11:00 +16°C° 0 mm 3 mps 760 mmHg 48%
12:00 +17°C° 0 mm 3 mps 760 mmHg 45%
13:00 +18°C° 0 mm 3 mps 760 mmHg 47%
14:00 +18°C° 0 mm 2 mps 760 mmHg 48%
15:00 +18°C° 0 mm 2 mps 760 mmHg 49%
16:00 +17°C° 0 mm 2 mps 759 mmHg 55%
17:00 +16°C° 0 mm 2 mps 759 mmHg 61%
18:00 +14°C° 0 mm 2 mps 759 mmHg 67%
19:00 +14°C° 0 mm 2 mps 759 mmHg 68%
20:00 +13°C° 0 mm 2 mps 759 mmHg 69%
21:00 +11°C° 0 mm 3 mps 759 mmHg 70%
22:00 +11°C° 0 mm 3 mps 759 mmHg 70%
23:00 +12°C° 0 mm 2 mps 758 mmHg 69%

Day after tomorrow, 30 September, Wednesday

Time Temperature Precipitation Wind Pressure Humidity
00:00 +10°C° 0 mm 2 mps 758 mmHg 69%
01:00 +10°C° 0 mm 2 mps 758 mmHg 70%
02:00 +10°C° 0 mm 2 mps 758 mmHg 71%
03:00 +10°C° 0 mm 2 mps 758 mmHg 71%
04:00 +9°C° 0 mm 2 mps 758 mmHg 73%
05:00 +9°C° 0 mm 2 mps 758 mmHg 74%
06:00 +9°C° 0 mm 2 mps 758 mmHg 75%
07:00 +10°C° 0 mm 2 mps 758 mmHg 72%
08:00 +11°C° 0 mm 3 mps 758 mmHg 69%
09:00 +13°C° 0 mm 3 mps 758 mmHg 66%
10:00 +14°C° 0 mm 3 mps 758 mmHg 62%
11:00 +16°C° 0 mm 3 mps 758 mmHg 59%
12:00 +17°C° 0 mm 4 mps 758 mmHg 55%
13:00 +18°C° 0 mm 4 mps 758 mmHg 54%
14:00 +18°C° 0 mm 4 mps 757 mmHg 54%
15:00 +18°C° 0 mm 4 mps 757 mmHg 53%
16:00 +17°C° 0 mm 4 mps 757 mmHg 59%
17:00 +14°C° 0 mm 3 mps 757 mmHg 65%
18:00 +13°C° 0 mm 3 mps 757 mmHg 71%
19:00 +12°C° 0 mm 3 mps 757 mmHg 72%
20:00 +12°C° 0 mm 3 mps 757 mmHg 73%
21:00 +11°C° 0 mm 3 mps 758 mmHg 73%
22:00 +11°C° 0 mm 3 mps 758 mmHg 74%
23:00 +11°C° 0 mm 3 mps 758 mmHg 75%

1 October, Thursday

Time Temperature Precipitation Wind Pressure Humidity
00:00 +11°C° 0 mm 3 mps 758 mmHg 76%
01:00 +10°C° 0 mm 3 mps 758 mmHg 76%
02:00 +10°C° 0 mm 2 mps 758 mmHg 77%
03:00 +10°C° 0 mm 2 mps 758 mmHg 77%
04:00 +10°C° 0 mm 2 mps 758 mmHg 78%
05:00 +9°C° 0 mm 2 mps 758 mmHg 79%
06:00 +9°C° 0 mm 2 mps 758 mmHg 80%
07:00 +10°C° 0 mm 2 mps 758 mmHg 75%
08:00 +12°C° 0 mm 3 mps 758 mmHg 70%
09:00 +13°C° 0 mm 3 mps 758 mmHg 64%
10:00 +16°C° 0 mm 3 mps 758 mmHg 59%
11:00 +17°C° 0 mm 3 mps 758 mmHg 53%
12:00 +19°C° 0 mm 3 mps 758 mmHg 48%
13:00 +19°C° 0 mm 3 mps 758 mmHg 47%
14:00 +19°C° 0 mm 3 mps 758 mmHg 46%
15:00 +19°C° 0 mm 3 mps 758 mmHg 46%
16:00 +18°C° 0 mm 3 mps 757 mmHg 52%
17:00 +16°C° 0 mm 3 mps 757 mmHg 58%
18:00 +13°C° 0 mm 3 mps 757 mmHg 64%
19:00 +12°C° 0 mm 3 mps 757 mmHg 66%
20:00 +12°C° 0 mm 3 mps 757 mmHg 68%
21:00 +11°C° 0 mm 3 mps 758 mmHg 70%
22:00 +12°C° 0 mm 2 mps 758 mmHg 72%
23:00 +12°C° 0 mm 2 mps 758 mmHg 75%

2 October, Friday

Time Temperature Precipitation Wind Pressure Humidity
00:00 +10°C° 0 mm 2 mps 758 mmHg 77%
01:00 +10°C° 0 mm 2 mps 758 mmHg 79%
02:00 +10°C° 0 mm 2 mps 757 mmHg 81%
03:00 +10°C° 0 mm 2 mps 757 mmHg 84%
04:00 +9°C° 0 mm 2 mps 757 mmHg 85%
05:00 +9°C° 0 mm 2 mps 758 mmHg 87%
06:00 +9°C° 0 mm 2 mps 758 mmHg 89%
07:00 +10°C° 0 mm 2 mps 757 mmHg 83%
08:00 +13°C° 0 mm 2 mps 757 mmHg 77%
09:00 +13°C° 0 mm 3 mps 757 mmHg 72%
10:00 +14°C° 0 mm 3 mps 757 mmHg 66%
11:00 +17°C° 0 mm 3 mps 757 mmHg 61%
12:00 +18°C° 0 mm 3 mps 757 mmHg 56%
13:00 +19°C° 0 mm 3 mps 757 mmHg 55%
14:00 +19°C° 0 mm 3 mps 757 mmHg 55%
15:00 +19°C° 0 mm 3 mps 757 mmHg 54%
16:00 +17°C° 0 mm 3 mps 757 mmHg 60%
17:00 +16°C° 0 mm 3 mps 757 mmHg 67%
18:00 +13°C° 0 mm 3 mps 757 mmHg 73%
19:00 +13°C° 0 mm 3 mps 757 mmHg 75%
20:00 +12°C° 0 mm 3 mps 757 mmHg 78%
21:00 +11°C° 0 mm 3 mps 757 mmHg 80%
22:00 +12°C° 0 mm 2 mps 757 mmHg 81%
23:00 +10°C° 0 mm 2 mps 757 mmHg 82%

3 October, Saturday

Time Temperature Precipitation Wind Pressure Humidity
00:00 +10°C° 0 mm 2 mps 757 mmHg 83%
01:00 +10°C° 0 mm 2 mps 757 mmHg 84%
02:00 +9°C° 0 mm 2 mps 757 mmHg 84%
03:00 +10°C° 0 mm 1 mps 757 mmHg 85%
04:00 +9°C° 0 mm 2 mps 757 mmHg 86%
05:00 +9°C° 0 mm 2 mps 757 mmHg 87%
06:00 +9°C° 0 mm 2 mps 757 mmHg 87%
07:00 +10°C° 0 mm 2 mps 757 mmHg 81%
08:00 +13°C° 0 mm 2 mps 757 mmHg 74%
09:00 +14°C° 0 mm 2 mps 757 mmHg 67%
10:00 +16°C° 0 mm 2 mps 757 mmHg 62%
11:00 +17°C° 0 mm 3 mps 757 mmHg 56%
12:00 +18°C° 0 mm 3 mps 757 mmHg 51%
13:00 +18°C° 0 mm 3 mps 757 mmHg 50%
14:00 +19°C° 0 mm 2 mps 757 mmHg 50%
15:00 +19°C° 0 mm 2 mps 757 mmHg 49%
16:00 +17°C° 0 mm 2 mps 757 mmHg 54%
17:00 +16°C° 0 mm 2 mps 757 mmHg 60%
18:00 +14°C° 0 mm 2 mps 757 mmHg 65%
19:00 +14°C° 0 mm 2 mps 757 mmHg 67%
20:00 +13°C° 0 mm 2 mps 757 mmHg 70%
21:00 +12°C° 0 mm 2 mps 758 mmHg 72%
22:00 +12°C° 0 mm 2 mps 758 mmHg 73%
23:00 +12°C° 0 mm 2 mps 758 mmHg 74%
Show more